PUUANAHULU RAWS NEAR KAILUA KONA 20NE HADS current weather conditions

sailwx.info

Wind from 288 at 6 knots gusting 13

Air temperature 22.2° C
Dewpoint 16.7° C

Last reported at 2017-Mar-22 23:37 UTC.
Time now 2017-Mar-23 00:26 UTC

Location: N 19°50' W 155°46'.
View on Google Maps.

See reports from other nearby stations

  
Tides and Currents Weather Stations Pressure Air Temp Water Temp Dewpoint Dewpoint Depression Visibility Wind Speed Wind Dir Waves Ship Positions
date/time (UTC)wind fromknots sea level pressurealtimeterstation pressurevisibilityair tempwater tempwave heightnotes
2017-Mar-22 23:37 288 6 gusting 13 22.2
2017-Mar-22 22:37 279 8 gusting 13 22.2
2017-Mar-22 21:37 309 6 gusting 13 23.3
2017-Mar-22 20:37 303 4 gusting 9 23.3
2017-Mar-22 19:37 268 3 gusting 9 21.7
2017-Mar-22 18:37 295 1 gusting 5 20.6
2017-Mar-22 17:37 125 2 gusting 8 18.3
2017-Mar-22 16:37 130 6 gusting 10 14.4
2017-Mar-22 15:37 130 6 gusting 7 13.9
2017-Mar-22 14:37 116 3 gusting 8 14.4
2017-Mar-22 13:37 120 6 gusting 10 15.0
2017-Mar-22 12:37 114 6 gusting 8 16.1
2017-Mar-22 11:37 127 3 gusting 6 16.7
2017-Mar-22 10:37 068 1 gusting 4 17.8
2017-Mar-22 09:37 174 2 gusting 5 17.8
2017-Mar-22 08:37 152 3 gusting 6 16.1
2017-Mar-22 07:37 182 4 gusting 6 16.7
2017-Mar-22 06:37 169 4 gusting 6 17.2
2017-Mar-22 05:37 180 3 gusting 6 17.8
2017-Mar-22 04:37 296 3 gusting 17 18.9
2017-Mar-22 03:37 354 10 gusting 18 21.1
2017-Mar-22 02:37 342 6 gusting 19 23.3
2017-Mar-22 01:37 294 5 gusting 13 23.9
2017-Mar-22 00:37 336 6 gusting 14 23.3
2017-Mar-21 23:37 353 9 gusting 19 23.9
2017-Mar-21 22:37 300 9 gusting 19 24.4
2017-Mar-21 21:37 267 6 gusting 16 25.0
2017-Mar-21 20:37 267 4 gusting 10 23.9
2017-Mar-21 19:37 276 6 gusting 11 22.8
2017-Mar-21 18:37 201 6 gusting 9 20.6
2017-Mar-21 17:37 185 6 gusting 10 17.2
2017-Mar-21 16:37 180 6 gusting 13 15.6
2017-Mar-21 15:37 146 6 gusting 10 14.4
2017-Mar-21 14:37 289 0 gusting 12 15.0
2017-Mar-21 13:37 162 8 gusting 13 14.4
2017-Mar-21 12:37 141 5 gusting 6 14.4
2017-Mar-21 11:37 164 5 gusting 6 14.4
2017-Mar-21 10:37 175 5 gusting 8 15.0
2017-Mar-21 09:37 194 4 gusting 7 15.6
2017-Mar-21 08:37 181 4 gusting 6 15.6
2017-Mar-21 07:37 223 4 gusting 6 16.1
2017-Mar-21 06:37 214 3 gusting 9 17.8
2017-Mar-21 05:37 216 3 gusting 13 17.2
2017-Mar-21 04:37 004 8 gusting 15 18.9
2017-Mar-21 03:37 004 12 gusting 20 21.7
2017-Mar-21 02:37 009 13 gusting 23 22.8
2017-Mar-21 01:37 013 13 gusting 25 25.0
2017-Mar-21 00:37 009 15 gusting 23 24.4